Location: Caltech
(34.1382°N, 118.1253°W)
Time: 19:56:15
(UTC-07:00)

Iridium 65 - Visible Passes

Search period start: 20 April 2015 00:00
Search period end: 30 April 2015 00:00
Orbit: 776 x 779 km, 86.4° (Epoch: 20 April)

Date Brightness Start Highest point End Pass type
(mag) Time Alt. Az. Time Alt. Az. Time Alt. Az.
20 Apr 8.4 00:12:21 12° N 00:12:21 12° N 00:12:49 10° N visible
20 Apr 8.3 23:38:44 12° NNE 23:38:44 12° NNE 23:39:08 10° NNE visible
22 Apr 8.4 00:45:34 11° NNW 00:45:34 11° NNW 00:45:49 10° NNW visible
23 Apr 8.2 00:11:57 15° N 00:11:57 15° N 00:12:48 10° N visible
23 Apr 8.0 23:38:18 16° N 23:38:18 16° N 23:39:21 10° N visible
24 Apr 8.0 23:04:39 14° NNE 23:04:39 14° NNE 23:05:30 10° NNE visible
25 Apr 8.4 00:45:06 11° NW 00:45:06 11° NW 00:45:15 10° NNW visible
25 Apr 8.1 22:30:59 10° NE 22:30:59 10° NE 22:31:07 10° NE visible
26 Apr 8.1 00:11:26 16° NNW 00:11:26 16° NNW 00:12:37 10° NNW visible
26 Apr 7.8 23:37:46 21° N 23:37:46 21° N 23:39:25 10° N visible
27 Apr 7.6 23:04:05 21° NNE 23:04:05 21° NNE 23:05:49 10° N visible
28 Apr 7.6 22:30:23 17° NE 22:30:23 17° NE 22:31:46 10° NNE visible
29 Apr 8.0 00:10:50 16° NW 00:10:50 16° NW 00:12:13 10° NNW visible
29 Apr 7.9 21:56:40 11° NE 21:56:40 11° NE 21:56:59 10° NE visible
29 Apr 7.6 23:37:07 24° NNW 23:37:07 24° NNW 23:39:19 10° N visible
